#timestamp,LO_Frequency,Hit,StdDev 
1516510815.3,286047000.0,N
1516510835.1,286046999.9,N
1516510855.9,286047002.1,N
1516510875.7,286046999.7,N
1516510895.5,286047000.8,N
1516510915.4,286046999.9,N
1516510935.2,286046998.3,N
1516510955.1,286047000.3,N
1516510986.0,286047003.8,E
1516510995.0,286047003.1,N
1516510995.9,286047003.1,P
1516511015.8,286046998.3,P
1516511035.6,286046998.7,N
1516511055.4,286046999.9,N
1516511075.3,286046998.2,N
1516511095.1,286046998.9,N
1516511115.8,286046996.8,N
1516511135.7,286046996.9,N
1516511155.5,286046998.4,N
1516511175.4,286046998.0,N
1516511195.2,286046994.2,N
1516511215.0,286046994.1,N
1516511215.9,286046994.1,N
1516511235.8,286046992.0,N
1516511255.6,286046993.9,N
1516511275.4,286046992.5,N
1516511295.3,286046992.3,N
1516511315.1,286046990.1,Y
1516511335.9,286046995.6,P
1516511355.7,286046995.0,P
1516511375.5,286046995.8,P
1516511395.4,286046997.6,Y
1516511415.2,286046999.1,P
1516511435.0,286047001.0,N
1516511435.9,286047001.0,N
1516511455.8,286047004.8,N
1516511475.6,286047003.8,N
1516511495.5,286047005.6,N
1516511515.3,286047003.3,N
1516511535.1,286047005.5,N
1516511555.9,286047004.8,N
1516511575.7,286047007.5,N
1516511595.5,286047005.3,N
1516511615.4,286047003.3,N
1516511635.2,286047005.1,N
1516511655.1,286047005.1,N
1516511656.0,286047005.1,N
1516511675.8,286047004.8,N
1516511695.6,286047007.5,N
1516511715.5,286047004.8,N
1516511735.3,286047007.2,N
1516511755.1,286047005.7,N
1516511775.9,286047005.8,N
1516511795.7,286047002.3,N
1516511815.6,286047000.9,N
1516511835.4,286047000.4,N
1516511855.2,286047004.0,N
1516511875.1,286047005.8,N
1516511876.0,286047005.8,N
1516511895.8,286047005.3,N
1516511915.7,286047003.3,N
1516511935.5,286046999.8,N
1516511955.3,286047001.0,N
1516511975.2,286047001.4,N
1516511995.9,286047004.4,N
1516512015.7,286047004.8,N
1516512035.6,286047001.5,N
1516512055.4,286047002.8,N
1516512075.3,286047001.9,N
1516512095.1,286047001.5,N
1516512096.0,286047001.5,N
1516512115.8,286047003.1,N
1516512135.7,286047004.1,N
1516512155.5,286047001.5,N
1516512175.3,286047005.3,N
1516512195.2,286047007.5,Y
1516512215.0,286047003.9,P
1516512215.9,286047003.9,P
1516512235.8,286047003.7,P
1516512255.6,286047004.3,Y
1516512275.4,286046997.0,P
1516512295.3,286046998.5,N
1516512315.1,286046998.5,N
1516512335.9,286046998.9,N
1516512355.7,286047002.4,N
1516512375.5,286047001.1,N
1516512395.4,286046996.8,N
1516512415.2,286046993.9,N
1516512435.0,286046994.5,N
1516512435.9,286046994.5,N
1516512455.8,286047002.2,N
1516512475.6,286047001.2,N
1516512495.5,286046999.0,N
1516512515.3,286047000.4,N
1516512535.1,286047000.4,N
1516512555.9,286046998.3,N
1516512575.7,286046998.9,N
1516512595.5,286046996.9,N
1516512615.4,286046999.1,N
1516512635.2,286046997.0,N
1516512655.0,286046997.4,N
1516512656.0,286046997.4,N
1516512675.8,286046996.8,N
1516512695.6,286046998.7,N
1516512715.5,286047001.0,N
1516512735.3,286046998.5,N
1516512755.1,286046996.5,N
1516512775.9,286046996.1,N
1516512795.7,286046994.2,N
1516512815.6,286046995.2,N
1516512835.4,286046996.1,N
1516512855.2,286046991.8,Y
1516512875.1,286046997.6,P
1516512876.0,286046997.6,P
1516512895.8,286046998.4,P
1516512915.6,286047000.1,N
1516512935.5,286046997.6,N
1516512955.3,286046996.0,Y
1516512975.2,286046997.4,P
1516512995.9,286046997.6,P
1516513015.7,286046996.7,P
1516513035.6,286047000.4,N
1516513055.4,286046999.8,N
1516513075.2,286047001.9,N
1516513095.1,286047002.3,N
1516513096.0,286047002.3,N
1516513115.8,286046999.9,N
1516513135.7,286047004.1,N
1516513155.5,286047001.8,N
1516513175.3,286047006.0,N
1516513195.2,286047004.4,N
1516513215.0,286047001.6,N
1516513215.9,286047001.6,N
1516513235.7,286046998.8,N
1516513255.6,286046997.0,N
1516513275.4,286046997.7,N
1516513295.3,286046997.7,N
1516513315.1,286046999.6,N
1516513316.0,286046999.6,N
1516513335.8,286046995.1,N
1516513355.7,286046997.2,N
1516513375.5,286046999.2,N
1516513395.3,286046999.6,N
1516513415.2,286046995.1,N
1516513435.0,286046996.8,N
1516513435.9,286046996.8,N
1516513455.8,286046997.1,N
1516513475.6,286047002.8,N
1516513495.4,286046999.7,N
1516513515.3,286047001.8,N
1516513535.1,286047001.9,N
1516513555.8,286047001.6,N
1516513575.7,286046999.7,N
1516513595.5,286047003.1,N
1516513615.4,286047005.4,N
1516513635.2,286047003.3,N
1516513655.0,286047003.7,N
1516513655.9,286047003.7,N
1516513675.8,286047003.7,N
1516513695.6,286047005.1,N
1516513715.4,286047004.5,N
1516513735.3,286047009.9,Y
1516513755.1,286047009.6,P
1516513775.9,286047009.2,N
1516513795.7,286047007.5,N
1516513815.5,286047007.9,N
1516513835.4,286047008.5,N
1516513855.2,286047009.2,N
1516513875.1,286047010.0,Y
1516513876.0,286047010.0,P
1516513895.8,286047000.8,N
1516513915.6,286046999.8,N
1516513935.5,286047000.3,N
1516513955.3,286047002.6,N
1516513975.1,286047000.0,N
1516513995.9,286047000.4,N
1516514015.7,286047000.7,N
1516514035.6,286046998.2,N
1516514055.4,286047000.0,N
1516514075.2,286047000.7,N
1516514095.1,286047000.1,N
1516514096.0,286047000.1,N
1516514115.8,286047002.4,N
1516514135.6,286047002.8,N
1516514155.5,286047000.1,N
1516514175.3,286046998.4,N
1516514195.2,286046999.1,N
1516514215.9,286046997.5,N
1516514235.7,286046998.0,N
1516514255.6,286046994.6,N
1516514275.4,286046996.2,N
1516514295.2,286046995.5,N
1516514315.1,286046996.2,N
1516514346.0,286046994.3,E
1516514355.0,286046997.5,N
1516514355.9,286046997.5,P
1516514375.8,286046996.6,P
1516514395.6,286046997.3,Y
